Weather History for KPRN - April, 2013

Change the Weather History Date:

Tuesday, April 2, 2013

  Actual Average Record
Temperature  
Mean Temperature 63 °F -  
Max Temperature 78 °F 76 °F 87 °F (1935)
Min Temperature 48 °F 48 °F 33 °F (1972)
Degree Days  
Heating Degree Days 2    
Growing Degree Days 13 (Base 50)    
Moisture  
Dew Point 46 °F    
Average Humidity 58    
Maximum Humidity 90    
Minimum Humidity 30    
Precipitation  
Precipitation 0.00 in - - ()
Sea Level Pressure  
Sea Level Pressure 30.07 in    
Wind  
Wind Speed 3 mph (NE)    
Max Wind Speed 8 mph    
Max Gust Speed -    
Visibility 10 miles    
Events      
Averages and records for this station are not official NWS values.
T = Trace of Precipitation, MM = Missing Value Source: NWS Daily Summary

Daily Weather History Graph

Daily Weather History Graph

Search for Another Location

Airport or City:

Trip Planner

Search our weather history database for the weather conditions in past years. The results will help you decide how hot, cold, wet, or windy it might be!

Date:

Astronomy

Apr. 02, 2013 Rise Set
Actual Time 6:33 AM CDT 7:06 PM CDT
Civil Twilight 6:08 AM CDT 7:31 PM CDT
Nautical Twilight 5:39 AM CDT 8:00 PM CDT
Astronomical Twilight 5:10 AM CDT 8:29 PM CDT
Moon 12:56 AM CDT (4/2) 11:37 AM CDT (4/2)
Length of Visible Light 13h 22m
Length of Day
12h 33m
Waning Gibbous, 55% of the Moon is Illuminated
Apr 2
Waning Gibbous
Apr 2
Last Quarter
Apr 10
New
Apr 18
First Quarter
Apr 25
Full

Hourly Weather History & Observations

Time (CDT) Temp. Dew Point Humidity Pressure Visibility Wind Dir Wind Speed Gust Speed Precip Events Conditions
12:56 AM 50.0 °F 46.9 °F 89% 30.05 in 10.0 mi Calm Calm - N/A   Clear
1:56 AM 48.9 °F 46.0 °F 90% 30.06 in 10.0 mi Calm Calm - N/A   Clear
2:56 AM 48.9 °F 46.0 °F 90% 30.05 in 10.0 mi North 6.9 mph - N/A   Clear
3:56 AM 50.0 °F 45.0 °F 83% 30.03 in 10.0 mi North 4.6 mph - N/A   Clear
4:56 AM 52.0 °F 45.0 °F 77% 30.06 in 10.0 mi NNW 5.8 mph - N/A   Clear
5:56 AM 51.1 °F 44.1 °F 77% 30.08 in 10.0 mi Calm Calm - N/A   Clear
7:56 AM 55.0 °F 46.9 °F 74% 30.13 in 10.0 mi NNE 3.5 mph - N/A   Clear
8:56 AM 60.1 °F 45.0 °F 57% 30.13 in 10.0 mi ENE 8.1 mph - N/A   Clear
9:56 AM 64.9 °F 45.0 °F 48% 30.14 in 10.0 mi East 6.9 mph - N/A   Clear
10:56 AM 69.1 °F 45.0 °F 42% 30.14 in 10.0 mi ESE 5.8 mph - N/A   Clear
11:56 AM 72.0 °F 45.0 °F 38% 30.12 in 10.0 mi NE 5.8 mph - N/A   Clear
12:56 PM 73.9 °F 45.0 °F 35% 30.10 in 10.0 mi South 3.5 mph - N/A   Clear
1:56 PM 77.0 °F 46.0 °F 33% 30.08 in 10.0 mi Variable 3.5 mph - N/A   Clear
2:56 PM 75.9 °F 44.1 °F 32% 30.05 in 10.0 mi Calm Calm - N/A   Clear
3:56 PM 78.1 °F 44.1 °F 30% 30.03 in 10.0 mi Calm Calm - N/A   Clear
4:56 PM 75.9 °F 44.1 °F 32% 30.02 in 10.0 mi Calm Calm - N/A   Clear
5:56 PM 77.0 °F 43.0 °F 30% 30.02 in 10.0 mi Calm Calm - N/A   Clear
6:56 PM 72.0 °F 46.9 °F 41% 30.02 in 10.0 mi NNE 6.9 mph - N/A   Clear
7:56 PM 68.0 °F 46.9 °F 47% 30.04 in 10.0 mi ENE 3.5 mph - N/A   Clear
8:56 PM 62.1 °F 48.9 °F 62% 30.05 in 10.0 mi Calm Calm - N/A   Clear
9:56 PM 60.1 °F 50.0 °F 69% 30.07 in 10.0 mi Calm Calm - N/A   Clear
10:56 PM 57.0 °F 50.0 °F 77% 30.07 in 10.0 mi Calm Calm - N/A   Clear
11:56 PM 55.9 °F 50.0 °F 80% 30.06 in 10.0 mi NE 3.5 mph - N/A   Clear